User: anonymous   Login
Location: Unspecified
(0.0000°N, 0.0000°E)
Time: 11:17:46
(UTC+02:00)
Language:

Milstar 3 - Orbit

View from above orbital plane
View from above orbital plane
View from above satellite
View from above satellite

Ground track
Ground track

The orbit data is extracted from the following two-line orbital elements,

1 25724U 99023A   17224.08185596 0.00000000  00000-0  00000-0 0    04
2 25724  28.2236 152.6022 2132299 181.7743 178.2252  9.37479007    05
Epoch (UTC): 12 August 2017 01:57:52
Eccentricity: 0.2132299
inclination: 28.2236°
perigee height: 1097 km
apogee height: 5148 km
right ascension of ascending node: 152.6022°
argument of perigee: 181.7743°
revolutions per day: 9.37479007
mean anomaly at epoch: 178.2252°
orbit number at epoch: 0

The dashed part of the orbit path shows where the satellite is in the earth's shadow,  

DLR